sat.trackr.live / text

‹ back to catalog

STARLINK-34518

NORAD 64480 · 2025-133J

PAYLOAD ACTIVE UNKNOWN

§ Identity

Operator
Country
US
Launch date
2025-06-23
Launch site
AFETR
Launch vehicle
Mass (kg)
RCS (m²)

Purposes: comms

External: N2YO · Heavens-Above · Gunter

§ Orbital elements

Epoch: 2026-09-20T19:06:22.735008Z

Period
93.85 min
Inclination
53.1564°
Eccentricity
0.0003228
Mean motion
15.34405996 rev/d
Perigee alt
460.5 km
Apogee alt
464.9 km
Semi-major
6,840.8 km
B*
5.4047e-4
RAAN
288.1730°
Arg perigee
83.1687°
Mean anomaly
276.9683°
Rev number
7,093

§ Raw data

STARLINK-345181 64480U 25133J   26263.79609647  .00017933  00000+0  54047-3 0  99982 64480  53.1564 288.1730 0003228  83.1687 276.9683 15.34405996 70931

JSON: /api/v1/satellites/64480 · /tle

For live sub-satellite position, see the globe view (requires WebGL).

§ Visibility from observer

Set your observer location to see the next 7 days of passes ≥ 10°. The values pass through the URL so the page stays shareable.

No JS? Fill the form by hand. The geolocation button needs JavaScript.